{"data":{"norad_id":61591,"epoch":"2026-09-21T04:06:32.517216Z","epoch_age_seconds":134047,"freshness":"FRESH","line1":"1 61591U 24187T   26264.17120969  .00000307  00000+0  20238-4 0  9997","line2":"2 61591  53.1613 218.5111 0001792  82.9898 277.1309 15.34399625109270","mean_motion":15.34399625,"eccentricity":0.0001792,"inclination_deg":53.1613,"raan_deg":218.5111,"arg_perigee_deg":82.9898,"mean_anomaly_deg":277.1309,"bstar":2.0238e-5,"rev_number":10927,"period_min":93.847781017282,"perigee_km":461.47847601558,"apogee_km":463.93023355714,"semimajor_km":6840.8413547864,"source":"CELESTRAK","updated_at":"2026-09-22T09:00:49.393916Z"}}